Regional Weather Roundup
Issued by NWS

Home | Current Version | Previous Version | Text Only | Print | Product List | Glossary Off
Versions: 1 2 3 4 5 6 7 8 9 10 11 12 13 14 15 16 17 18 19 20 21 22 23 24 25 26 27 28 29 30 31 32 33 34 35 36 37 38 39 40 41 42 43 44 45 46 47 48 49 50

000
ASUS43 KLSX 141059
RWRMO

WEATHER SUMMARY FOR MISSOURI
NATIONAL WEATHER SERVICE SPRINGFIELD MO
600 AM CDT MON JUL 14 2014

NOTE: "FAIR" INDICATES FEW OR NO CLOUDS BELOW 12,000 FEET WITH NO
       SIGNIFICANT WEATHER AND/OR OBSTRUCTIONS TO VISIBILITY.
       CURRENT SKY AND/OR WEATHER CONDITIONS ARE NOT AVAILABLE FOR
       CHILLICOTHE AND FARMINGTON.

MOZ001>031-035>038-043-044-053-054-141200-
...NORTHERN AND WESTERN MISSOURI...

CITY           SKY/WX    TMP DP  RH WIND       PRES   REMARKS
KANSAS CTY INT PTCLDY    69  66  90 SW6       29.97R
KANSAS C DTWN  CLEAR     72  68  87 CALM      29.96R
LEE`S SUMMIT   CLEAR     68  66  93 SW5       29.97R
ST JOSEPH      CLEAR     70  68  93 S5        29.96S
CHILLICOTHE      N/A     69  67  93 CALM      29.95S
KIRKSVILLE     CLEAR     68  66  93 SW6       29.93S

$$
MOZ066>068-077>081-088>096-101>105-141200-
...SOUTHWEST MISSOURI...

CITY           SKY/WX    TMP DP  RH WIND       PRES   REMARKS
SPRINGFIELD    PTCLDY    71  69  93 N3        29.98F FOG
JOPLIN         CLEAR     71  70  96 CALM      29.97F

$$
MOZ032>034-039>042-045>050-055>058-069>072-141200-
...CENTRAL MISSOURI...

CITY           SKY/WX    TMP DP  RH WIND       PRES   REMARKS
COLUMBIA       FOG       70  70 100 CALM      29.95S VSB 1/4
JEFFERSON CITY FOG       72  71  97 CALM      29.93F VSB 1
ROLLA          FOG       68  67  96 W3        29.94F VSB 1/4
SEDALIA        CLEAR     69  68  96 SW6       29.95F
OSAGE BEACH    CLOUDY    72  70  94 CALM      29.95S VSB<1/4

$$
MOZ051-052-059>065-141200-
...EAST CENTRAL MISSOURI...

CITY           SKY/WX    TMP DP  RH WIND       PRES   REMARKS
ST LOUIS INTL  CLOUDY    74  72  93 W6        29.91F
SPIRIT OF STL  MOCLDY    71  69  93 W3        29.90F
ST CHARLES     CLOUDY    73  72  96 W7        29.90F

$$
MOZ072>076-082>087-097>100-106>115-141200-
...SOUTH CENTRAL AND SOUTHEAST MISSOURI...

CITY           SKY/WX    TMP DP  RH WIND       PRES   REMARKS
CAPE GIRARDEAU LGT RAIN  72  70  93 S3        29.92F
FARMINGTON     CLOUDY    72  70  94 NW3       29.95F
POPLAR BLUFF   LGT RAIN  72  69  90 CALM      29.93S
WEST PLAINS    MOCLDY    69  66  90 W7        29.98F

$$


USA.gov is the U.S. government's official web portal to all federal, state and local government web resources and services.